Weather reports worldwide

Advertisment
Ibiza/Es Codola, Spain (8373): temperature & dewpoint: 09.12.2019 00:00:00 - 15.12.2019 00:00:00 (CET)Ibiza/Es Codola, Spain (8373): wind speed & gusts: 09.12.2019 00:00:00 - 15.12.2019 00:00:00 (CET)Ibiza/Es Codola, Spain (8373): wind direction: 09.12.2019 00:00:00 - 15.12.2019 00:00:00 (CET)Ibiza/Es Codola, Spain (8373): reduced air pressure: 09.12.2019 00:00:00 - 15.12.2019 00:00:00 (CET)Ibiza/Es Codola, Spain (8373): visibility: 09.12.2019 00:00:00 - 15.12.2019 00:00:00 (CET)
Date & Time tt [°C] td [°C] ff [km/h] ff [kn] fx [km/h] fx [kn] dd ppp [hPa] vv [km]
15.12.2019 00:00:00 - - - - - - - - -
14.12.2019 23:00:00 10,8 9,3 5 3 - - W 1017,1 10
14.12.2019 22:00:00 10,1 8,5 2 1 - - - 1016,9 10
14.12.2019 21:00:00 10,8 8,7 8 4 - - NNW 1017,4 10
14.12.2019 20:00:00 11,5 8,7 4 2 - - NNW 1017,1 10
14.12.2019 19:00:00 13,6 9,6 8 4 - - SW 1017,1 25
14.12.2019 18:00:00 14,5 9,9 8 4 - - SSW 1016,6 10
14.12.2019 17:00:00 15,5 10,0 11 6 - - SW 1016,5 10
14.12.2019 16:00:00 16,5 10,1 15 8 - - SSW 1016,2 25
14.12.2019 15:00:00 17,7 8,5 18 10 - - WSW 1016,2 10
14.12.2019 14:00:00 17,7 6,8 24 13 - - W 1016,7 10
14.12.2019 13:00:00 17,7 7,1 29 16 - - W 1017,0 10
14.12.2019 12:00:00 17,2 6,8 31 17 - - W 1016,7 10
14.12.2019 11:00:00 17,1 6,6 34 18 - - W 1016,6 10
14.12.2019 10:00:00 16,5 7,2 28 15 - - W 1016,0 25
14.12.2019 09:00:00 15,9 6,6 28 15 - - W 1014,6 10
14.12.2019 08:00:00 15,3 7,1 31 17 - - W 1014,8 10
14.12.2019 07:00:00 15,8 7,0 29 16 - - WSW 1013,9 20
14.12.2019 06:00:00 16,0 6,7 26 14 - - W 1013,0 10
14.12.2019 05:00:00 16,2 6,6 29 16 - - W 1013,2 10
14.12.2019 04:00:00 16,4 7,2 52 28 - - W 1013,3 10
14.12.2019 03:00:00 16,6 7,5 48 26 - - W 1013,1 10
14.12.2019 02:00:00 16,9 7,3 39 21 - - W 1012,2 10
14.12.2019 01:00:00 17,5 7,2 42 23 - - W 1012,4 10
14.12.2019 00:00:00 17,9 7,9 44 24 - - W 1013,0 10
13.12.2019 23:00:00 17,7 7,8 41 22 - - W 1012,8 10
13.12.2019 22:00:00 18,4 7,3 42 23 - - W 1012,5 20
13.12.2019 21:00:00 18,7 7,4 50 27 81 44 W 1011,9 10
13.12.2019 20:00:00 18,9 7,3 46 25 76 41 W 1011,2 10
13.12.2019 19:00:00 18,7 7,2 50 27 - - W 1010,3 10
13.12.2019 18:00:00 18,9 7,0 42 23 78 42 W 1010,1 10
13.12.2019 17:00:00 18,7 7,1 44 24 - - W 1009,6 10
13.12.2019 16:00:00 18,2 7,4 42 23 - - W 1009,2 10
13.12.2019 15:00:00 18,5 7,2 54 29 76 41 W 1008,5 10
13.12.2019 14:00:00 18,2 7,3 42 23 81 44 W 1008,9 10
13.12.2019 13:00:00 18,0 8,0 48 26 - - W 1008,7 25
13.12.2019 12:00:00 17,7 8,8 44 24 76 41 W 1009,0 10
13.12.2019 11:00:00 18,2 8,7 44 24 - - W 1008,7 10
13.12.2019 10:00:00 17,8 8,7 44 24 - - WSW 1008,2 10
13.12.2019 09:00:00 16,1 10,4 39 21 - - WSW 1007,9 10
13.12.2019 08:00:00 15,8 10,1 44 24 - - WSW 1007,1 10
13.12.2019 07:00:00 15,7 9,8 44 24 - - WSW 1007,4 10
13.12.2019 06:00:00 15,5 10,4 29 16 - - SW 1007,9 10
13.12.2019 05:00:00 15,6 9,0 39 21 - - WSW 1008,0 10
13.12.2019 04:00:00 16,2 7,0 42 23 - - WSW 1008,0 10
13.12.2019 03:00:00 15,1 9,6 35 19 - - WSW 1008,4 10
13.12.2019 02:00:00 15,0 8,8 44 24 - - WSW 1008,7 10
13.12.2019 01:00:00 14,8 8,1 42 23 - - WSW 1009,7 10
13.12.2019 00:00:00 14,8 8,1 41 22 - - WSW 1010,2 10
12.12.2019 23:00:00 15,0 5,3 39 21 - - WSW 1011,0 10
12.12.2019 22:00:00 14,3 5,0 35 19 - - W 1011,5 10
12.12.2019 21:00:00 14,1 5,1 26 14 - - W 1011,9 10
12.12.2019 20:00:00 13,9 4,1 29 16 - - W 1012,3 10
12.12.2019 19:00:00 13,5 3,9 35 19 - - WSW 1012,4 10
12.12.2019 18:00:00 13,7 3,3 39 21 - - WSW 1013,0 10
12.12.2019 17:00:00 14,1 2,0 35 19 - - W 1014,2 10
12.12.2019 16:00:00 14,1 3,9 29 16 - - WSW 1014,6 30
12.12.2019 15:00:00 14,1 4,6 31 17 - - WSW 1015,1 10
12.12.2019 14:00:00 14,9 4,8 31 17 - - W 1016,2 10
12.12.2019 13:00:00 14,7 3,9 35 19 - - W 1017,5 25
12.12.2019 12:00:00 13,7 3,6 35 19 - - W 1018,3 10
12.12.2019 11:00:00 13,8 4,2 35 19 - - W 1019,4 10
12.12.2019 10:00:00 13,2 4,3 26 14 - - W 1019,4 25
12.12.2019 09:00:00 13,0 5,0 28 15 - - W - 10
12.12.2019 08:00:00 13,0 5,0 24 13 - - W - 10
12.12.2019 07:00:00 13,0 5,0 24 13 - - W - 10
12.12.2019 06:00:00 13,0 5,0 18 10 - - W - 10
12.12.2019 05:00:00 - - - - - - - - -
12.12.2019 04:00:00 - - - - - - - - -
12.12.2019 03:00:00 - - - - - - - - -
12.12.2019 02:00:00 - - - - - - - - -
12.12.2019 01:00:00 - - - - - - - - -
12.12.2019 00:00:00 14,0 5,0 15 8 - - WNW - 10
11.12.2019 23:00:00 14,0 3,0 22 12 - - NNW - 10
11.12.2019 22:00:00 15,0 3,0 28 15 - - NNW - 10
11.12.2019 21:00:00 14,0 4,0 15 8 - - N - 10
11.12.2019 20:00:00 14,0 7,0 18 10 - - NNW - 10
11.12.2019 19:00:00 14,3 6,1 28 15 - - N 1018,0 40
11.12.2019 18:00:00 16,0 8,0 22 12 - - NW - 10
11.12.2019 17:00:00 16,0 9,0 16 9 - - WSW - 10
11.12.2019 16:00:00 17,0 10,0 22 12 - - WSW - 10
11.12.2019 15:00:00 17,0 10,0 24 13 - - WSW - 10
11.12.2019 14:00:00 18,0 5,0 26 14 - - W - 10
11.12.2019 13:00:00 15,8 9,6 16 9 - - SW 1017,4 10
11.12.2019 12:00:00 16,0 11,0 15 8 - - WSW - 10
11.12.2019 11:00:00 16,0 12,0 22 12 - - WSW - 10
11.12.2019 10:00:00 14,0 13,0 11 6 - - SW - 10
11.12.2019 09:00:00 9,0 8,0 2 1 - - - - 10
11.12.2019 08:00:00 8,0 7,0 4 2 - - - - 10
11.12.2019 07:00:00 8,0 8,0 2 1 - - N - 10
11.12.2019 06:00:00 8,0 7,0 2 1 - - - - 10
11.12.2019 05:00:00 - - - - - - - - -
11.12.2019 04:00:00 - - - - - - - - -
11.12.2019 03:00:00 - - - - - - - - -
11.12.2019 02:00:00 - - - - - - - - -
11.12.2019 01:00:00 - - - - - - - - -
11.12.2019 00:00:00 9,0 7,0 2 1 - - - - 10
10.12.2019 23:00:00 9,0 8,0 4 2 - - - - 10
10.12.2019 22:00:00 8,3 6,3 4 2 - - - 1023,5 10
10.12.2019 21:00:00 9,0 7,0 4 2 - - - - 10
10.12.2019 20:00:00 10,0 7,0 8 4 - - NNW - 10
10.12.2019 19:00:00 9,6 6,7 5 3 - - NNW 1023,9 10
10.12.2019 18:00:00 12,0 9,0 4 2 - - - - 10
10.12.2019 17:00:00 15,0 9,0 8 4 - - SSW - 10
10.12.2019 16:00:00 15,4 6,8 9 5 - - SSE 1023,9 10
10.12.2019 15:00:00 15,0 9,0 11 6 - - ESE - 10
10.12.2019 14:00:00 16,0 9,0 15 8 - - E - 10
10.12.2019 13:00:00 15,8 8,0 15 8 - - E 1025,3 10
10.12.2019 12:00:00 16,0 8,0 8 4 - - ENE - 10
10.12.2019 11:00:00 16,0 7,0 8 4 - - NNE - 10
10.12.2019 10:00:00 15,1 7,7 2 1 - - - 1025,9 10
10.12.2019 09:00:00 12,0 9,0 5 3 - - WSW - 10
10.12.2019 08:00:00 12,0 8,0 9 5 - - SSW - 10
10.12.2019 07:00:00 12,0 6,4 13 7 - - SSW 1024,6 40
10.12.2019 06:00:00 12,0 8,0 11 6 - - SW - 10
10.12.2019 05:00:00 - - - - - - - - -
10.12.2019 04:00:00 - - - - - - - - -
10.12.2019 03:00:00 - - - - - - - - -
10.12.2019 02:00:00 - - - - - - - - -
10.12.2019 01:00:00 - - - - - - - - -
10.12.2019 00:00:00 16,0 3,0 26 14 - - N - 10
09.12.2019 23:00:00 16,0 2,0 22 12 - - NNW - 10
09.12.2019 22:00:00 16,0 3,0 39 21 - - NNW - 10
09.12.2019 21:00:00 16,0 5,0 35 19 - - NNW - 10
09.12.2019 20:00:00 16,0 5,0 24 13 - - NNW - 10
09.12.2019 19:00:00 16,0 8,0 21 11 - - NW - 10
09.12.2019 18:00:00 15,0 6,0 16 9 - - NW - 10
09.12.2019 17:00:00 16,0 6,0 21 11 - - WNW - 10
09.12.2019 16:00:00 17,0 4,0 13 7 - - WNW - 10
09.12.2019 15:00:00 17,0 7,0 18 10 - - NW - 10
09.12.2019 14:00:00 17,0 7,0 34 18 - - NW - -
09.12.2019 13:00:00 18,0 7,0 34 18 - - WNW - 10
09.12.2019 12:00:00 17,0 8,0 21 11 - - NW - 10
09.12.2019 11:00:00 17,0 9,0 26 14 - - WSW - 10
09.12.2019 10:00:00 16,0 11,0 11 6 - - WSW - 10
09.12.2019 09:00:00 15,0 11,0 11 6 - - SSW - 10
09.12.2019 08:00:00 13,0 10,0 11 6 - - WSW - 10
09.12.2019 07:00:00 13,2 9,9 11 6 - - WNW 1022,8 15
09.12.2019 06:00:00 15,0 11,0 2 1 - - WNW - 10
09.12.2019 05:00:00 - - - - - - - - -
09.12.2019 04:00:00 - - - - - - - - -
09.12.2019 03:00:00 - - - - - - - - -
09.12.2019 02:00:00 - - - - - - - - -
09.12.2019 01:00:00 - - - - - - - - -
09.12.2019 00:00:00 11,0 9,0 0 0 - - N - 10

tt = temperature
td = dewpoint
ff = wind speed
fx = gusts
dd = wind direction
ppp = reduced air pressure
vv = visibility

Next stations